SCP
2 1 1 1 1 0 0 0 0 0 0 0 0 0 0 0 0 0 0 1 1 1 1 1 1 1 1 1 1 2 2 2 2 2 2 1 1 1 1 1 1 1 1 1 1 1 1 1 1
2 1 1 1 1 0 0 0 0 0 0 0 0 0 0 0 0 0 0 1 1 1 1 1 1 1 1 1 1 1 2 1 1 1 1 1 1 1 1 1 0 0 1 1 1 1 1 1 1
1 1 1 1 1 0 0 0 0 0 0 0 0 0 0 0 0 0 0 1 1 1 1 1 2 2 2 1 1 1 1 1 1 1 1 1 1 1 1 1 0 1 1 1 1 1 1 1 1
2 2 2 1 1 0 0 0 0 1 0 0 0 0 0 0 1 1 1 1 1 1 1 1 2 2 2 2 1 1 1 1 1 1 1 1 1 1 1 1 1 1 1 1 1 1 1 1 1
2 3 2 1 0 0 0 0 1 1 0 0 0 0 0 1 1 1 1 1 1 1 1 1 2 2 2 2 1 1 1 0 0 0 0 0 1 1 1 1 1 1 1 1 1 1 1 1 1
3 2 2 1 0 0 0 1 1 1 0 0 0 0 0 1 1 1 1 1 1 1 1 1 2 2 2 2 1 1 1 0 0 0 0 0 0 1 1 1 1 1 1 1 1 1 1 1 1
2 2 1 1 0 0 0 1 1 1 1 0 0 0 1 1 1 1 1 0 0 1 1 1 1 2 2 2 2 1 1 1 0 0 0 0 1 1 1 1 2 1 1 1 1 1 1 1 1
2 1 0 0 0 0 0 0 1 1 1 0 0 0 1 1 1 1 1 1 1 1 1 1 1 1 2 2 1 1 1 1 1 0 0 0 0 1 1 2 2 1 1 1 1 1 1 1 1
1 1 0 0 0 0 0 0 1 1 1 1 1 1 1 1 1 2 1 1 1 1 1 1 1 1 1 1 1 1 1 1 1 0 0 0 0 0 1 1 1 1 1 1 1 1 1 1 1
1 0 0 0 0 0 0 1 0 0 1 1 2 2 2 2 2 2 2 2 1 1 1 1 1 1 1 1 1 1 1 0 0 0 0 0 0 0 0 1 1 1 1 1 1 1 1 1 1
1 0 0 0 0 0 0 0 0 0 1 1 2 3 3 2 2 3 3 2 2 1 1 1 1 1 1 1 1 1 0 0 0 0 0 0 0 0 0 0 1 1 1 1 1 1 1 0 0
0 0 0 0 0 0 0 0 0 1 1 1 2 3 3 3 2 2 3 3 3 2 2 2 1 1 1 1 1 1 0 0 0 0 0 0 0 0 0 0 0 1 1 1 1 1 0 0 0
0 0 1 0 0 0 1 1 1 1 1 1 2 2 2 2 2 2 2 3 3 3 3 2 2 1 1 1 1 1 1 1 0 0 0 0 0 0 0 0 0 0 0 1 1 0 0 0 0
0 0 1 1 0 1 1 1 1 1 1 1 2 2 2 2 2 2 2 3 3 3 2 2 2 1 1 1 1 1 1 1 1 0 0 0 0 0 0 0 0 0 0 0 0 0 0 0 0
0 0 1 1 1 1 1 2 1 1 1 1 1 1 2 2 2 2 2 3 3 2 2 2 2 1 1 1 1 1 0 0 0 0 0 0 0 0 0 0 0 0 0 0 0 0 0 0 0
0 0 0 0 1 1 2 2 1 1 1 1 1 1 1 2 2 2 2 2 2 2 2 2 1 1 1 1 1 0 0 0 0 0 0 0 0 0 0 0 1 1 1 0 0 0 0 0 0
0 0 0 0 1 1 1 1 1 1 1 1 1 2 2 2 2 2 2 2 2 2 2 2 2 1 1 1 1 0 0 0 0 0 0 0 0 0 0 1 1 1 1 1 0 0 0 0 0
0 0 0 0 1 1 1 1 1 1 1 2 3 3 3 3 3 3 2 2 2 3 3 2 2 1 1 1 1 1 1 1 0 0 0 0 0 1 1 1 1 1 1 1 1 0 0 0 0
0 0 0 0 1 1 1 1 1 1 2 3 4 4 3 3 3 3 3 2 2 3 2 2 2 1 1 1 1 1 1 1 1 0 0 0 0 1 1 1 1 1 1 1 1 1 1 1 1
0 0 0 1 1 1 1 1 1 2 3 4 4 3 2 2 3 3 3 2 2 2 2 2 2 2 2 2 2 1 1 1 1 0 0 1 1 1 1 1 1 1 1 1 1 1 1 1 1
0 0 0 1 1 1 1 1 1 2 3 3 3 3 2 2 3 4 4 3 2 2 2 2 2 2 2 2 2 2 1 1 1 1 1 1 1 1 1 1 1 1 1 1 1 1 1 1 1
0 0 1 1 1 1 1 1 1 2 2 3 2 2 2 3 4 5 4 3 3 3 3 3 3 3 3 2 2 2 2 1 1 1 1 1 1 1 1 1 1 1 1 1 1 1 1 2 2
0 0 0 0 0 0 0 1 1 1 2 2 2 2 2 3 4 6 5 4 3 4 4 3 3 2 2 2 2 2 2 1 1 1 1 1 1 1 1 1 1 1 1 1 1 1 1 2 2
0 0 0 0 0 0 0 0 1 1 1 2 2 3 2 4 6 7 6 5 5 5 5 4 3 2 2 3 3 2 2 2 2 1 1 1 1 1 2 2 2 2 1 1 1 1 1 2 2
0 0 0 0 0 0 0 0 1 1 1 2 4 5 7 9 11 11 8 6 6 7 6 5 4 3 3 3 3 3 3 3 2 2 2 1 1 2 2 3 3 2 2 2 2 2 2 2 2
0 0 0 0 0 0 0 1 1 2 3 5 7 11 14 16 15 12 9 7 7 8 7 5 4 4 4 5 5 5 5 4 4 3 2 2 2 2 2 3 3 3 3 2 2 2 2 2 2
0 0 0 0 0 0 1 1 1 2 4 7 10 13 16 16 13 9 7 7 9 9 7 6 5 5 6 6 6 6 6 6 6 5 4 3 3 2 2 3 3 4 4 3 3 3 2 2 2
0 0 0 0 0 0 0 1 1 2 5 7 9 11 11 11 10 8 7 8 9 8 7 6 6 6 6 7 8 7 7 8 9 9 8 6 5 4 3 3 3 4 4 4 4 4 3 3 3
0 0 0 0 0 0 0 1 1 2 4 6 7 7 8 9 9 9 8 8 8 6 6 6 6 6 6 6 7 7 7 8 9 9 10 10 9 7 5 4 3 4 4 4 5 5 5 4 4
0 0 0 0 0 0 0 1 1 3 5 6 6 5 7 9 10 10 9 8 7 6 6 6 6 6 6 6 5 6 7 8 8 8 10 11 11 10 8 6 4 4 4 5 5 6 6 6 5
Wind_Speed
9 6 2 1 2 3 3 4 6 7 6 7 9 10 8 6 5 6 4 10 10 9 7 10 12 14 14 14 14 14 14 15 14 14 13 13 13 13 13 13 13 13 13 14 15 15 15 15 14
6 5 1 1 3 4 3 4 8 9 10 10 10 10 9 7 7 9 7 9 11 10 7 9 13 14 14 14 14 14 14 14 13 13 13 12 12 12 13 13 14 13 13 14 14 14 14 14 13
6 4 1 2 1 4 5 6 10 11 10 8 6 7 6 6 8 6 8 12 11 8 7 10 14 14 14 13 13 13 13 13 13 13 12 12 12 12 12 13 13 13 13 13 13 13 13 12 12
2 1 1 2 2 3 7 8 11 13 9 8 8 7 5 6 6 10 14 13 11 8 7 10 14 14 14 14 13 13 13 13 13 12 12 12 11 11 12 12 12 13 13 13 12 12 12 11 11
1 2 2 1 2 4 7 9 11 10 6 8 10 8 5 5 14 17 15 13 12 8 6 9 13 14 14 13 13 13 12 12 12 12 11 11 11 11 11 12 12 12 12 12 12 11 11 10 9
2 2 2 1 3 5 7 9 13 14 13 11 10 8 4 9 15 15 14 12 11 10 7 8 13 14 13 13 12 12 12 12 12 11 11 11 10 10 10 11 12 12 12 11 11 11 10 9 8
2 2 1 1 3 6 7 9 12 13 11 8 9 7 6 9 13 14 12 11 10 10 8 5 6 9 12 12 12 11 12 11 11 11 10 10 10 9 10 12 12 12 12 11 11 10 9 8 7
3 2 1 1 4 5 7 8 11 14 10 11 8 8 8 11 13 13 12 10 10 8 7 6 5 5 5 6 11 11 11 11 11 10 10 10 10 9 10 10 11 11 11 11 10 10 8 7 6
3 2 1 3 4 5 7 10 8 8 11 7 5 8 13 16 16 14 11 9 8 8 6 6 5 4 4 5 8 9 10 10 9 8 10 8 3 4 5 8 10 11 10 10 9 9 8 6 5
4 3 5 5 5 7 9 12 9 8 10 9 11 12 15 16 15 15 13 11 10 10 7 6 6 5 5 5 4 3 4 4 3 3 4 3 3 3 5 7 10 10 9 9 8 7 6 4 1
5 5 3 3 5 8 9 8 7 12 9 14 18 17 16 15 13 13 12 12 11 11 9 7 7 6 5 3 3 2 2 2 3 3 4 3 2 2 2 2 3 4 5 3 4 3 2 1 1
3 4 4 3 5 8 8 7 7 7 11 16 19 18 16 15 13 13 12 11 10 11 10 9 7 6 5 4 4 3 2 2 2 3 5 4 3 3 2 2 2 2 2 2 2 1 2 2 2
2 1 1 3 5 6 8 8 8 8 14 16 17 16 15 14 12 10 11 10 10 10 10 9 8 7 6 5 3 4 3 3 3 3 4 5 4 4 3 2 2 2 2 2 2 2 2 2 2
3 0 2 3 5 6 10 7 8 10 16 17 16 14 14 14 13 11 11 10 10 10 9 9 8 7 6 5 3 3 3 3 3 3 4 5 4 4 3 3 3 2 2 3 3 3 3 2 1
2 4 3 2 4 5 9 5 6 13 16 16 15 14 13 12 13 13 13 13 11 11 10 9 9 7 7 6 5 4 3 4 3 3 4 4 4 4 4 3 3 3 3 3 2 2 2 2 1
3 3 0 4 3 4 8 6 7 12 16 15 14 14 12 10 12 13 12 11 11 11 10 10 9 8 6 5 4 3 3 4 3 3 3 5 5 5 4 3 3 2 2 2 2 2 2 1 1
3 1 3 3 3 4 5 5 9 11 14 14 13 13 12 10 10 10 11 12 12 12 11 9 8 8 6 5 4 3 3 4 3 3 3 4 5 5 4 3 2 2 2 2 2 2 2 2 1
4 3 3 4 5 4 4 5 10 12 12 12 12 11 12 13 12 11 11 12 11 11 10 9 8 7 6 4 3 2 2 3 3 3 4 5 4 5 4 3 3 2 2 2 1 2 2 2 2
6 4 4 6 5 5 5 6 11 13 11 11 11 11 12 12 11 11 12 12 11 10 10 9 9 7 6 3 3 3 3 3 2 3 5 5 4 5 4 3 2 3 3 3 3 2 2 1 1
5 4 4 4 3 4 4 5 9 12 15 15 15 13 13 11 10 12 12 11 11 11 10 10 9 8 7 5 4 3 3 2 3 3 4 5 5 4 5 4 3 3 3 3 3 3 2 2 2
6 5 5 4 2 1 5 1 3 6 7 9 11 12 13 15 15 14 14 13 12 12 12 10 9 8 7 6 3 2 2 1 1 2 2 4 5 4 4 4 4 3 3 3 3 3 4 3 2
6 7 5 3 3 2 4 3 6 8 7 9 11 12 15 15 14 13 14 14 14 13 11 10 9 8 7 7 5 5 4 3 4 3 2 2 4 4 4 4 4 3 3 3 3 3 3 3 2
7 5 3 3 3 1 0 3 7 4 6 10 12 14 15 15 16 16 16 15 14 13 12 10 9 8 7 7 7 6 4 3 2 2 3 3 2 3 3 3 3 3 3 3 3 3 3 3 3
3 2 4 5 5 0 4 4 6 7 12 12 12 13 13 13 14 14 13 11 10 11 11 10 10 8 7 7 7 6 6 5 4 3 4 3 2 2 2 2 3 3 3 3 4 3 3 3 3
3 5 3 5 4 5 3 3 9 8 10 13 13 14 14 13 13 13 13 13 12 12 12 11 10 9 8 8 7 7 7 6 6 5 5 4 3 2 3 3 3 3 3 3 3 3 3 3 3
3 8 7 5 5 5 3 4 7 5 6 8 10 12 13 13 13 14 14 14 13 13 12 12 11 10 9 8 8 7 6 5 4 5 5 5 4 4 3 3 3 3 3 3 3 3 3 2 3
2 3 8 7 2 1 4 4 6 1 2 5 7 9 10 12 13 13 13 12 12 13 12 12 12 11 10 9 8 6 6 5 5 5 4 4 3 3 4 4 3 3 3 3 3 2 3 3 3
5 5 5 5 4 3 4 4 5 4 2 3 6 8 10 10 11 12 12 11 11 11 10 10 10 10 9 8 8 7 6 6 5 5 5 4 4 3 3 4 3 3 3 3 3 2 2 2 3
1 2 4 4 5 6 4 7 7 7 5 5 6 8 9 10 11 12 11 10 10 9 9 9 9 8 7 8 7 6 6 6 5 5 5 5 4 4 4 4 4 4 3 2 2 3 2 2 3
5 6 7 5 4 4 4 8 5 6 5 5 5 6 7 9 10 11 11 11 10 10 9 9 9 8 8 8 6 6 5 5 5 5 5 5 4 4 4 4 4 4 3 3 3 3 3 3 3
Wind_Direction
165 161 163 160 47 54 93 104 107 86 67 69 81 86 86 67 98 126 138 135 133 131 129 128 129 127 124 121 119 118 117 116 115 114 114 114 114 115 118 121 122 123 122 122 124 124 124 124 124
160 162 134 50 74 79 85 107 100 100 117 106 83 83 77 71 86 110 123 134 131 130 130 131 132 130 127 123 120 121 120 119 118 118 118 118 117 118 121 124 126 125 124 125 127 128 128 127 126
173 182 130 66 107 138 131 126 118 110 111 104 94 71 73 100 109 119 136 137 129 127 131 135 133 131 128 125 123 122 121 120 120 120 121 122 121 121 122 124 128 128 128 130 132 133 132 132 130
165 139 43 67 140 151 138 138 123 114 94 87 97 78 72 109 117 129 136 134 128 130 134 137 135 134 133 130 127 125 124 123 123 123 123 124 125 127 128 128 131 133 133 133 135 135 136 135 135
96 89 50 39 110 126 132 132 127 117 101 97 97 97 83 88 117 130 136 135 134 134 137 138 137 138 136 133 131 130 128 127 126 125 125 127 129 131 134 136 135 137 137 137 138 138 140 140 139
71 71 61 72 105 117 125 123 113 107 113 111 105 104 97 124 128 137 139 137 139 140 140 140 141 139 138 137 136 134 132 132 130 130 129 130 131 135 140 143 142 143 142 141 142 143 145 146 144
116 96 156 154 120 124 135 129 120 128 128 129 125 103 117 136 140 141 140 137 138 140 140 138 142 142 142 142 141 138 137 136 136 136 136 134 133 134 139 142 141 146 146 146 148 150 151 151 151
156 98 21 138 125 127 137 125 130 132 126 133 128 127 148 153 143 134 133 132 136 139 141 142 143 144 144 144 148 148 144 143 142 141 141 140 138 136 135 137 140 144 147 149 151 154 157 158 159
129 77 208 176 149 144 133 116 116 113 122 134 122 132 145 143 136 130 130 131 141 147 153 153 153 151 146 148 154 153 150 149 149 147 148 145 133 130 135 143 148 151 153 155 158 162 168 170 174
139 164 214 186 160 150 136 129 129 114 114 110 110 121 134 138 139 141 146 150 157 160 165 164 163 162 159 162 150 151 149 147 146 144 146 139 135 144 151 155 160 158 160 162 165 172 179 181 172
164 185 210 170 146 141 133 135 121 126 136 147 143 145 145 145 147 150 156 159 163 164 165 167 167 167 168 159 150 148 143 147 155 160 157 147 142 145 150 145 161 159 164 161 170 178 184 185 190
175 213 178 164 141 139 143 135 122 138 158 155 148 148 149 152 157 160 162 164 159 160 168 170 169 166 167 155 157 157 157 163 170 173 165 153 146 147 151 153 155 157 161 168 183 181 191 208 210
139 170 133 163 145 138 125 125 124 132 140 145 144 147 153 157 161 161 159 157 155 159 165 169 164 162 157 154 166 157 163 169 169 161 161 157 153 159 159 162 164 172 169 176 187 195 195 210 207
197 239 116 141 123 124 119 121 113 142 146 148 151 155 160 161 162 157 157 157 159 162 163 165 163 162 156 156 161 160 168 166 159 157 161 160 155 158 161 166 170 182 183 190 190 190 187 197 182
87 65 40 136 133 141 112 92 138 153 152 154 161 164 165 168 164 163 165 163 164 164 163 163 162 159 156 158 166 162 167 162 161 162 160 156 153 155 157 163 172 185 180 176 171 175 155 165 172
51 77 158 248 159 163 122 156 179 160 157 162 168 169 168 171 169 166 164 162 161 159 160 165 163 159 160 160 163 160 161 161 164 160 154 156 158 158 153 157 180 184 163 156 160 165 154 168 176
31 120 239 253 189 166 138 174 177 170 163 168 173 172 167 166 164 164 163 162 161 160 158 159 157 161 165 162 160 157 156 159 163 158 157 162 165 163 156 163 181 174 163 171 185 168 164 169 185
243 235 243 221 213 160 151 186 173 177 170 171 172 170 168 172 173 167 164 162 159 158 157 158 158 162 162 154 139 132 143 155 157 160 167 167 170 167 161 166 182 170 158 172 173 168 166 169 179
228 238 250 244 215 152 173 184 182 180 180 174 176 176 174 176 171 165 164 163 157 157 158 162 161 164 160 158 159 158 171 173 169 175 176 175 175 173 168 177 182 179 179 187 180 162 160 176 140
238 244 251 269 257 158 167 191 187 182 188 184 181 183 179 170 169 166 165 166 165 165 166 166 167 169 169 171 170 166 163 171 180 184 179 181 178 180 181 180 186 184 173 175 178 160 159 193 166
257 228 210 207 260 66 108 15 202 208 194 191 190 185 183 178 178 173 171 172 169 171 173 172 170 168 171 165 147 133 107 93 133 175 186 189 183 185 185 181 184 185 179 187 195 180 174 192 208
260 244 210 191 119 245 138 196 249 208 198 197 193 186 186 185 180 177 175 175 178 180 175 169 168 166 169 165 161 159 165 175 194 188 184 187 189 187 186 184 186 187 187 191 198 186 183 176 198
236 239 213 203 141 105 35 146 269 207 205 207 197 193 190 185 179 180 181 181 181 178 174 171 167 168 169 166 169 168 171 178 172 163 165 178 194 194 188 188 185 187 194 198 199 190 187 184 187
239 40 25 44 72 5 230 169 251 211 203 202 198 193 191 186 182 181 180 176 176 176 173 171 169 174 172 169 170 171 171 172 163 172 179 190 198 204 203 189 193 195 195 199 202 199 194 201 194
48 84 28 354 4 253 242 190 239 226 202 194 187 188 189 183 181 178 176 175 175 176 176 175 173 176 176 174 176 177 177 174 177 181 186 185 191 206 215 206 203 205 204 198 198 194 200 203 199
212 140 160 198 223 270 308 234 255 236 194 182 180 181 182 181 180 178 180 177 176 175 173 174 178 179 179 181 183 182 179 180 185 183 180 185 193 201 198 199 205 211 209 203 198 201 206 203 209
183 186 170 148 194 248 277 280 305 324 121 160 165 165 173 177 178 178 175 173 173 175 176 177 178 178 183 185 182 183 183 182 182 178 177 183 189 188 186 189 198 210 211 209 192 201 212 205 208
157 159 92 112 153 239 274 255 229 242 206 166 159 163 174 176 171 169 166 167 170 172 171 170 172 179 181 183 186 187 187 186 180 174 180 183 189 191 179 182 191 205 213 211 196 200 218 207 220
150 105 109 126 159 166 235 259 220 201 192 184 179 167 165 168 166 166 165 166 165 165 166 168 172 173 175 179 180 182 183 183 175 177 181 183 184 183 183 179 188 198 205 198 187 202 203 215 231
179 176 150 154 228 184 187 259 248 183 183 172 167 156 148 155 158 161 161 162 165 168 171 173 174 177 181 179 175 179 177 176 179 185 186 183 184 184 183 176 182 198 201 196 197 210 209 207 225